Location: Smithsonian NASM Public Observatory
(38.8879°N, 77.0185°W)
Time: 03:36:12
(UTC-04:00)

Daily predictions for brighter satellites

Satellite Brightness Start Highest point End
(mag) Time Altitude Azimuth Time Altitude Azimuth Time Altitude Azimuth
COSMOS 2428 4.4 00:01:31 10° NW 00:05:33 20° W 00:06:47 19° WSW
Cosmos 1455 3.9 00:04:48 10° NNW 00:07:33 27° WNW 00:07:33 27° WNW
Cosmos 1869 4.5 00:04:24 10° NNW 00:07:41 37° WNW 00:07:41 37° WNW
H-2A R/B 3.7 00:10:13 21° WSW 00:11:30 23° W 00:15:44 10° NW
Cosmos 2297 Rocket 2.3 00:10:25 52° SW 00:11:40 68° WNW 00:17:20 10° NNE
GEOS 3 Rocket 3.9 00:11:06 52° E 00:11:56 58° NE 00:17:02 10° NNW
ATLAS 3B R/B 2.8 00:07:20 10° NNW 00:14:17 64° NE 00:16:06 47° ESE
Lacrosse 4 Rocket 2.2 00:15:41 10° NNW 00:19:35 49° NE 00:19:35 49° NE
Meteor 1-26 Rocket 4.1 00:14:36 10° N 00:20:13 74° E 00:20:33 71° ESE
Cosmos 1869 Rocket 3.9 00:21:53 65° NNW 00:21:53 65° NNW 00:25:48 10° N
Cosmos 2219 Rocket 3.3 00:17:17 10° NW 00:22:05 30° WSW 00:22:26 30° WSW
Cosmos 1269 Rocket 3.9 00:16:49 10° NNW 00:22:09 84° WSW 00:22:09 84° WSW
CZ-2C R/B 4.2 00:20:05 10° NE 00:23:25 22° E 00:23:25 22° E
NOSS 2-3 (E) 4.2 00:27:22 59° ENE 00:27:22 59° ENE 00:32:03 10° NE
ALOS 2 3.2 00:27:29 53° NE 00:27:29 53° NE 00:31:09 10° N
Cosmos 389 Rocket 4.3 00:24:57 10° N 00:26:58 31° N 00:26:58 31° N
Landsat 5 4.3 00:33:06 48° NE 00:33:06 48° NE 00:36:56 10° N
Terra 4.2 00:34:39 12° W 00:35:11 12° W 00:37:07 10° WNW
Cosmos 44 Rocket 3.7 00:40:52 61° ENE 00:40:52 61° ENE 00:45:20 10° NE
H-2A R/B 3.2 00:36:56 10° NNE 00:40:11 53° N 00:40:11 53° N
CZ-4B R/B 3.4 00:44:09 29° N 00:44:09 29° N 00:45:59 10° N
MOS 1-B Rocket 4.5 00:44:31 42° E 00:45:24 45° ENE 00:50:43 10° N
COSMOS 2455 2.7 00:39:38 10° NNW 00:45:39 73° WSW 00:45:49 73° SW
Cosmos 1125 Rocket 4.4 00:46:29 37° W 00:47:27 41° WNW 00:52:30 10° N
Cosmos 1610 Rocket 4.4 00:47:55 67° ESE 00:48:20 70° E 00:54:25 10° NNE
Cosmos 2074 Rocket 3.9 00:47:39 69° SSW 00:48:24 80° W 00:54:45 10° N
Meteor 2-3 Rocket 3.6 00:49:35 78° WSW 00:49:52 81° W 00:55:38 10° N
Cosmos 1048 Rocket 4.3 00:45:19 10° NNW 00:50:14 57° W 00:50:14 57° W
BREEZE-M TANK 4.2 00:40:46 10° W 00:50:38 44° NNW 00:53:50 10° ENE
Cosmos 2237 Rocket 3.5 00:45:58 10° NW 00:50:31 27° W 00:50:31 27° W
NOSS 2-3 (C) 4.0 00:53:45 71° NW 00:53:46 71° NW 00:59:23 10° NNE
SeaSat 1 3.5 00:55:21 35° W 00:55:21 35° W 00:59:05 10° NW
Cosmos 1892 4.3 00:58:06 33° NNE 00:58:06 33° NNE 01:00:18 10° N
Okean 1-7 4.3 00:52:37 10° NNW 00:55:37 35° WNW 00:55:37 35° WNW
CZ-4C R/B 3.9 00:59:46 10° NNW 01:06:20 39° NE 01:12:08 15° ESE
Helios 1A Rocket 3.8 01:03:54 10° N 01:06:57 48° N 01:06:57 48° N
NOSS 3-4 (A) 4.4 01:14:01 35° ESE 01:14:01 35° ESE 01:19:25 10° NE
NOSS 3-4 (C) 4.4 01:14:08 34° ESE 01:14:08 34° ESE 01:19:30 10° NE
Cosmos 1674 Rocket 4.2 01:09:50 10° N 01:13:19 53° NNE 01:13:19 53° NNE
Cosmos 2154 Rocket 3.9 01:14:44 73° SSE 01:15:19 81° E 01:21:38 10° N
ASTEX 1 4.0 01:13:27 10° N 01:17:51 47° WNW 01:17:51 47° WNW
Cosmos 1607 4.4 01:13:31 10° NNW 01:19:33 54° NE 01:21:19 41° ESE
Cosmos 1782 4.1 01:16:21 10° N 01:18:58 39° N 01:18:58 39° N
Cosmos 1238 Rocket 4.3 01:19:17 10° N 01:21:56 32° NNE 01:21:56 32° NNE
Cosmos 1825 4.2 01:26:16 24° NE 01:26:16 24° NE 01:28:16 10° NNE
Cosmos 921 Rocket 4.0 01:26:24 43° NNE 01:26:24 43° NNE 01:29:18 10° NNE
Cosmos 1340 Rocket 4.3 01:26:58 33° NNW 01:26:58 33° NNW 01:29:30 10° N
Cosmos 1908 Rocket 4.3 01:29:40 48° NNE 01:29:40 48° NNE 01:32:57 10° NNE
Cosmos 1932 4.3 01:23:59 10° NNW 01:30:25 80° WSW 01:30:56 74° S
Cosmos 2263 Rocket 3.0 01:35:36 38° E 01:35:36 38° E 01:40:40 10° NE
FALCON 9 R/B 4.1 01:31:06 10° W 01:36:25 24° WSW 01:36:25 24° WSW
SL-16 R/B 3.8 01:38:12 10° NW 01:41:37 22° W 01:41:37 22° W
Cosmos 2341 Rocket 3.9 01:44:41 66° SW 01:45:29 75° W 01:51:54 10° N
CZ-2C R/B 3.1 01:46:35 78° SSE 01:47:01 88° ENE 01:52:44 10° NNW
Sich 1 Rocket 4.4 01:49:59 46° NW 01:49:59 46° NW 01:53:39 10° N
Meteor 1-27 Rocket 3.6 01:44:52 10° N 01:50:45 86° W 01:51:04 80° SSW
Cosmos 44 3.7 01:51:01 63° WNW 01:51:17 64° WNW 01:56:43 10° NNE
Cosmos 2251 Rocket 4.4 01:48:41 10° NW 01:52:48 37° W 01:52:48 37° W
Lacrosse 4 Rocket 4.2 01:55:52 10° WNW 01:55:55 10° WNW 01:55:55 10° WNW
Cosmos 1959 Rocket 4.5 01:59:56 60° SSE 02:00:56 72° E 02:07:09 10° NNE
Cosmos 1862 4.3 02:02:07 43° NNW 02:02:07 43° NNW 02:04:59 10° N
ATLAS 3B R/B 4.0 01:59:15 10° WNW 02:03:20 22° W 02:03:20 22° W
CZ-2C R/B 3.3 01:59:42 10° N 02:04:33 40° WNW 02:04:56 39° W
SL-8 Rocket 3.9 02:05:15 67° SSW 02:06:13 87° W 02:12:35 10° N
Cosmos 1943 3.0 02:02:06 10° NNW 02:07:48 88° ENE 02:08:22 74° SSE
Cosmos 1867 4.4 02:03:13 10° NNW 02:08:30 46° NE 02:11:13 26° ESE
USA 238 DEB 3.9 02:02:47 10° NW 02:09:29 49° WSW 02:09:41 49° WSW
USA 238 3.9 02:02:53 10° NW 02:09:36 49° WSW 02:09:49 49° WSW
Cosmos 2218 Rocket 3.9 02:10:59 64° S 02:12:02 86° E 02:18:23 10° N
Okean 3 4.1 02:08:43 10° NNW 02:12:06 51° NW 02:12:06 51° NW
H-2A ROCKET BODY 4.5 01:56:05 10° W 02:14:26 32° SW 02:14:26 32° SW
Cosmos 1606 4.5 02:12:45 10° NNW 02:14:46 25° NW 02:14:46 25° NW
Cosmos 1624 Rocket 4.4 02:17:18 50° ESE 02:17:35 50° ESE 02:22:38 10° NNE
Meteor 2-13 Rocket 4.5 02:17:20 56° WSW 02:18:11 62° W 02:24:17 10° N
Cosmos 1242 Rocket 4.1 02:17:17 10° N 02:19:51 32° NE 02:19:51 32° NE
Abrixas rocket 4.4 02:29:26 24° ENE 02:29:26 24° ENE 02:30:55 10° ENE
Cosmos 2366 rocket 3.9 02:27:26 61° SSW 02:28:35 81° W 02:34:48 10° N
Iridium 4 Rocket 3.7 02:24:16 10° N 02:28:52 56° E 02:29:32 51° ESE
USA 234 3.5 02:22:40 10° ESE 02:29:07 68° NE 02:35:36 10° NW
Okean 2 Rocket 3.7 02:30:45 48° WNW 02:30:45 48° WNW 02:34:47 10° N
Cosmos 1184 Rocket 4.3 02:34:38 36° N 02:34:38 36° N 02:36:46 10° N
CENTAUR R/B 4.5 02:34:37 10° NNW 02:41:40 36° NE 02:49:06 10° ESE
Meteor 2-8 Rocket 4.3 02:36:09 10° N 02:42:16 89° W 02:43:58 51° S
NOSS 3-2 (C) 3.9 02:35:52 10° NW 02:43:28 83° WSW 02:48:49 24° SSE
NPP 3.8 02:41:11 10° NNE 02:46:33 65° ESE 02:47:48 50° SSE
SL-08 R/B 3.8 02:47:35 39° SE 02:49:14 61° ENE 02:54:06 10° N
CBERS-1 4.4 02:44:24 10° NNE 02:49:28 57° E 02:50:41 45° SSE
IRAS Rocket 4.2 02:44:20 10° NNE 02:49:51 74° ESE 02:51:15 51° S
Cosmos 1727 Rocket 4.0 02:44:55 10° NNW 02:51:06 67° W 02:52:37 50° SSW
CZ-4C R/B 3.1 02:48:09 10° NW 02:55:08 51° WSW 02:57:14 41° SSW
Cosmos 1812 3.1 02:57:47 10° N 03:01:38 57° E 03:02:06 52° ESE
ERS-2 2.2 02:58:35 10° NNE 03:02:13 71° E 03:02:13 71° E
Cosmos 1300 Rocket 3.8 03:02:44 52° SE 03:03:28 61° E 03:07:45 10° NNE
NOSS 3-4 (A) 4.3 03:01:26 27° W 03:04:23 43° NW 03:10:38 10° NNE
NOSS 3-4 (C) 4.3 03:01:33 27° W 03:04:28 43° NW 03:10:43 10° NNE
USA 161 3.7 03:04:08 20° E 03:04:33 21° ENE 03:06:48 10° NNE
Okean 1 3.7 03:03:27 10° N 03:07:24 58° E 03:08:13 47° SE
PSLV R/B 4.5 03:03:43 10° N 03:07:30 33° WNW 03:07:38 33° WNW
NOSS 3-2 (A) 4.2 03:00:21 10° NW 03:07:39 50° WSW 03:10:44 34° SSW
Cosmos 1190 Rocket 3.9 03:03:05 10° NNW 03:08:21 88° ENE 03:10:22 38° SSE
AQUA 3.7 03:04:34 10° NNE 03:09:21 89° ESE 03:10:24 55° SSW
CZ-2D R/B 3.8 03:04:55 10° NE 03:09:26 26° E 03:13:06 14° SE
Cosmos 1536 Rocket 3.7 03:08:58 10° NNW 03:13:14 54° W 03:13:24 53° WSW
RESURS DK-1 3.3 03:13:25 33° WNW 03:13:51 34° WNW 03:17:41 10° N
Cosmos 2056 Rocket 3.9 03:13:32 41° WSW 03:14:52 52° WNW 03:20:00 10° N
Cosmos 1844 Rocket 3.0 03:14:55 36° S 03:17:06 59° ESE 03:22:41 10° NNE
Cosmos 2263 Rocket 3.5 03:17:17 23° W 03:19:24 29° WNW 03:24:21 10° N
Cosmos 1844 4.4 03:19:00 28° SSE 03:21:36 47° ESE 03:27:04 10° NE
Cosmos 1934 Rocket 4.2 03:18:43 27° SSE 03:22:13 67° E 03:28:20 10° NNE
Spot 4 Rocket 4.1 03:19:02 10° NNE 03:24:12 70° ESE 03:26:24 34° S
Cosmos 407 Rocket 3.3 03:19:58 10° NNW 03:25:07 82° WSW 03:27:41 31° S
NOSS 2-2 (C) 4.4 03:26:21 32° SSE 03:27:26 38° ESE 03:31:37 10° NE
IRS-1C 4.1 03:23:57 10° N 03:29:18 76° WNW 03:31:24 38° SSW
COSMOS 2406 3.1 03:24:55 10° NNW 03:30:42 79° WSW 03:34:45 20° SSE
Cosmos 676 Rocket 3.9 03:26:34 10° NNW 03:31:48 85° ENE 03:35:30 19° SSE
Okean 1-7 Rocket 3.5 03:30:15 10° N 03:34:50 82° W 03:36:41 36° S
Cosmos 1000 Rocket 4.4 03:29:34 10° NNW 03:35:39 68° W 03:38:56 29° SSW
Cosmos 2278 Rocket 3.1 03:32:46 20° SSE 03:36:09 41° ESE 03:41:27 10° NE
SL-16 R/B 3.0 03:31:50 10° SSE 03:37:57 61° ENE 03:44:05 10° N
SL-27 R/B 2.4 03:34:49 10° NNW 03:38:27 70° WSW 03:39:04 56° SSW
Cosmos 489 Rocket 4.5 03:32:56 10° NNW 03:39:13 84° ENE 03:45:25 10° SSE
Okean 1 Rocket 3.3 03:41:19 40° SW 03:42:31 53° W 03:46:53 10° N
SAR-Lupe-3 4.4 03:42:08 53° SSW 03:42:47 68° WSW 03:46:21 10° NNW
ATLAS 5 CENTAUR R/B 4.3 03:38:52 10° NNW 03:44:07 31° NE 03:49:39 10° ESE
IRS-1D 3.7 03:39:45 10° NNE 03:44:50 68° ESE 03:47:47 24° S
Cosmos 1602 3.6 03:45:03 40° S 03:46:22 86° E 03:50:14 10° N
Okean O Rocket 3.8 03:44:57 10° NE 03:48:15 21° E 03:51:32 10° SE
TIMED 4.5 03:48:38 37° SSW 03:50:16 74° WNW 03:54:39 10° NNE
UNK 3.8 03:46:40 24° SW 03:51:57 68° SE 03:55:20 10° ENE
NOSS 2-2 (E) 3.5 03:51:36 35° SSW 03:53:20 81° ESE 03:58:06 10° NE
Cosmos 1605 Rocket 4.0 03:49:43 20° S 03:54:07 84° E 04:00:24 10° N
Cosmos 1821 Rocket 4.2 03:52:01 27° SSW 03:55:30 56° W 04:01:49 10° N
GP-B 4.1 03:53:44 10° NNW 03:57:39 32° W 03:58:56 27° WSW
Resurs 1-4 Rocket 2.2 03:52:21 10° NNE 03:57:41 74° ESE 04:01:30 19° S
Meteor 2-4 Rocket 4.1 03:52:49 10° N 03:58:10 60° ENE 04:03:26 10° SSE
Cosmos 2123 Rocket 4.0 03:52:43 10° N 03:59:05 81° W 04:04:55 12° S
Cosmos 1461 3.6 03:57:06 25° S 03:59:43 55° ESE 04:04:16 10° NE
Cosmos 1954 Rocket 3.9 03:54:35 10° NNW 03:59:44 69° WSW 04:04:25 12° S
Cosmos 1536 2.8 04:00:52 28° S 04:02:58 85° W 04:07:04 10° N
Abrixas rocket 4.3 04:02:23 11° WNW 04:04:55 23° NNW 04:07:42 10° NE
Meteor 2-14 Rocket 4.5 04:03:37 22° SSW 04:07:32 63° W 04:13:33 10° N
Cosmos 1455 Rocket 3.8 04:04:40 12° SSE 04:08:36 52° E 04:12:56 10° NNE
USA 234 3.8 04:06:40 10° S 04:12:21 32° SW 04:18:06 10° WNW
UNKNOWN OBJECT B 3.0 04:08:39 10° NNE 04:12:44 73° E 04:15:48 17° S
Cosmos 1633 2.5 04:13:02 26° SSW 04:14:54 68° W 04:18:31 10° N
Gbstr 26 Del rocket 3.1 04:12:40 22° WSW 04:14:56 54° NW 04:18:37 10° NE
Cosmos 1025 Rocket 3.0 04:11:09 10° NNW 04:15:24 61° W 04:18:38 17° S
Cosmos 614 Rocket 4.3 04:11:57 10° NNW 04:17:08 70° ENE 04:22:13 10° SSE
ARIANE 5 R/B 2.9 04:15:20 10° N 04:20:08 48° WNW 04:23:26 19° SW
Cosmos 1356 3.4 04:18:16 22° SSW 04:20:26 79° W 04:23:59 10° N
MTI 3.7 04:19:00 12° S 04:22:04 85° WSW 04:25:23 10° NNW
Meteor 1-19 Rocket 4.4 04:17:28 10° NNW 04:23:10 58° W 04:28:53 10° S
SME Rocket 2.8 04:19:44 10° S 04:23:24 64° WSW 04:27:20 10° NNW
UNK 4.0 04:27:19 12° S 04:31:21 46° W 04:35:50 10° NNW
COSMOS 2487 2.6 04:27:50 10° NNW 04:31:24 56° WSW 04:34:56 10° S
Cosmos 2173 Rocket 4.4 04:25:49 10° S 04:31:48 64° E 04:37:53 10° NNE
EO 1 Del DPAF 3.9 04:29:13 17° SSW 04:31:48 37° W 04:35:27 10° NNW
CENTAUR R/B 3.1 04:25:03 10° NW 04:32:51 61° WSW 04:40:59 10° SSE
Cosmos 1420 Rocket 4.5 04:29:24 17° SW 04:33:11 47° WNW 04:38:19 10° N
Cosmos 1544 Rocket 3.8 04:30:36 16° SSW 04:34:00 55° W 04:38:20 10° N
Tiangong 1 2.3 04:34:49 20° SW 04:34:49 20° SW 04:37:11 10° SSE
USA 161 3.8 04:35:20 11° W 04:35:20 11° W 04:35:58 10° WNW
Cosmos 1802 Rocket 4.5 04:29:39 10° S 04:35:40 60° E 04:41:42 10° NNE
MOZ.5/SAFIR/RUBIN 5/SL-8 4.4 04:36:39 10° SSE 04:41:22 62° ENE 04:46:06 10° N
Cosmos 1833 Rocket 4.4 04:37:10 10° N 04:42:23 38° ENE 04:47:34 10° SE
Cosmos 1400 Rocket 3.6 04:44:58 14° SW 04:47:48 34° WNW 04:51:24 10° N
OTV 4 2.2 04:48:07 14° SSW 04:48:17 14° SSW 04:49:59 10° S
Cosmos 2100 Rocket 4.0 04:42:22 10° S 04:48:36 84° W 04:54:57 10° N
Cosmos 1459 Rocket 4.1 04:42:40 10° S 04:49:03 89° W 04:55:24 10° N
CZ-2D R/B 2.9 04:44:32 10° N 04:49:33 39° WNW 04:54:26 11° SW
Cosmos 1331 Rocket 4.4 04:44:50 10° S 04:50:01 65° ESE 04:55:11 10° NNE
Cosmos 1892 Rocket 4.4 04:53:16 10° NNW 04:57:06 31° W 05:00:54 10° SSW
Cosmos 1140 Rocket 4.3 04:53:01 10° NW 04:57:26 29° W 05:01:49 10° SSW
PAYLOAD B 4.3 04:52:47 10° NNE 04:58:24 85° WNW 05:04:00 10° SSW
Cosmos 1844 Rocket 4.3 04:57:16 10° W 05:01:25 20° NW 05:05:35 10° N
CZ-4B R/B 3.2 05:00:53 10° N 05:05:28 85° WNW 05:09:57 10° SSW
BREEZE-M DEB (TANK) 1.7 05:02:53 10° WSW 05:05:37 83° SSE 05:09:02 10° ENE
Timation 2 Rocket 3.9 05:00:09 10° NNW 05:06:11 61° WSW 05:12:02 10° S
Okean-O 3.3 05:07:10 10° NNE 05:11:35 58° E 05:15:56 10° S
Cosmos 2061 Rocket 4.2 05:06:35 10° SSW 05:12:48 59° W 05:19:06 10° N
Cosmos 1315 Rocket 3.8 05:09:38 10° SW 05:13:18 31° WNW 05:16:56 10° NNW
Meteor 1-12 Rocket 4.4 05:09:26 10° SSW 05:15:17 67° W 05:21:05 10° N
CZ-4B DEB 4.3 05:10:42 10° N 05:16:14 69° WNW 05:21:45 10° SSW
Cosmos 2297 4.0 05:12:12 10° SW 05:17:43 55° WNW 05:23:19 10° NNE
